Location: Unspecified
(49.2170°N, 0.0000°E)
Time: 21:53:14
(UTC+00:00)

Transit 2A Rocket - All Passes

Search period start: 19 January 2021 00:00
Search period end: 29 January 2021 00:00
Orbit: 592 x 911 km, 66.7° (Epoch: 18 January)

Date Brightness Start Highest point End Pass type
(mag) Time Alt. Az. Time Alt. Az. Time Alt. Az.
19 Jan - 12:48:26 10° S 12:53:22 35° ESE 12:57:57 10° NE daylight
19 Jan - 14:30:43 10° WSW 14:35:53 46° NW 14:40:38 10° NNE daylight
19 Jan - 16:16:47 10° WNW 16:19:36 15° NNW 16:22:18 10° N daylight
19 Jan - 19:46:00 10° NNW 19:48:58 17° NNE 19:51:50 10° ENE visible
19 Jan - 21:27:55 10° NNW 21:32:25 69° NE 21:36:41 10° SE visible
19 Jan - 23:11:39 10° WNW 23:14:21 16° WSW 23:17:00 10° SSW night (unlit)
20 Jan - 12:06:53 10° SSE 12:10:59 22° ESE 12:14:50 10° ENE daylight
20 Jan - 13:47:46 10° SW 13:53:11 70° NW 13:58:07 10° NNE daylight
20 Jan - 15:32:54 10° WNW 15:36:32 19° NNW 15:39:59 10° NNE daylight
20 Jan - 19:03:44 10° N 19:05:52 13° NNE 19:07:57 10° NE visible
20 Jan - 20:45:24 10° NNW 20:49:42 42° NE 20:53:48 10° ESE visible
20 Jan - 22:28:17 10° NW 22:32:03 28° WSW 22:35:43 10° S night (unlit)
21 Jan - 11:26:15 10° SE 11:28:40 13° ESE 11:31:02 10° E daylight
21 Jan - 13:05:07 10° SSW 13:10:34 76° ESE 13:15:32 10° NE daylight
21 Jan - 14:49:16 10° W 14:53:35 25° NW 14:57:38 10° NNE daylight
21 Jan - 16:36:55 10° NNW 16:37:51 10° NNW 16:38:46 10° N daylight
21 Jan - 18:21:41 10° N 18:22:42 11° NNE 18:23:43 10° NNE visible
21 Jan - 20:02:57 10° NNW 20:06:53 28° NE 20:10:38 10° E visible
21 Jan - 21:45:22 10° NW 21:49:38 49° WSW 21:53:46 10° SSE night (unlit)
22 Jan - 12:22:49 10° S 12:28:01 47° ESE 12:32:49 10° NE daylight
22 Jan - 14:05:52 10° WSW 14:10:44 36° NW 14:15:14 10° NNE daylight
22 Jan - 15:52:33 10° NW 15:54:40 13° NNW 15:56:44 10° N daylight
22 Jan - 19:20:35 10° NNW 19:23:56 20° NNE 19:27:12 10° E visible
22 Jan - 21:02:39 10° NW 21:07:07 85° SW 21:11:25 10° SSE visible
22 Jan - 22:47:41 10° W 22:48:49 11° WSW 22:49:56 10° WSW night (unlit)
23 Jan - 11:40:55 10° S 11:45:35 29° ESE 11:49:55 10° NE daylight
23 Jan - 13:22:44 10° SW 13:27:58 53° NW 13:32:46 10° NNE daylight
23 Jan - 15:08:31 10° WNW 15:11:34 16° NNW 15:14:29 10° N daylight
23 Jan - 18:38:17 10° N 18:40:55 15° NNE 18:43:29 10° ENE visible
23 Jan - 20:20:04 10° NNW 20:24:29 57° NE 20:28:44 10° SE visible
23 Jan - 22:03:26 10° WNW 22:06:34 20° WSW 22:09:40 10° SSW night (unlit)
24 Jan - 10:59:37 10° SSE 11:03:13 18° ESE 11:06:37 10° ENE daylight
24 Jan - 12:39:54 10° SW 12:45:18 82° NW 12:50:15 10° NE daylight
24 Jan - 14:24:42 10° W 14:28:32 21° NNW 14:32:10 10° NNE daylight
24 Jan - 17:56:04 10° N 17:57:48 12° NNE 17:59:30 10° NE visible
24 Jan - 19:37:35 10° NNW 19:41:45 36° NE 19:45:44 10° ESE visible
24 Jan - 21:20:16 10° NW 21:24:14 34° WSW 21:28:06 10° S visible
25 Jan - 10:19:56 10° ESE 10:20:57 10° ESE 10:21:56 10° E daylight
25 Jan - 11:57:22 10° SSW 12:02:43 64° ESE 12:07:37 10° NE daylight
25 Jan - 13:41:08 10° W 13:45:37 28° NW 13:49:48 10° NNE daylight
25 Jan - 15:28:28 10° NNW 15:29:46 11° NNW 15:31:02 10° N daylight
25 Jan - 18:55:10 10° NNW 18:58:53 24° NE 19:02:28 10° E visible
25 Jan - 20:37:26 10° NW 20:41:48 60° WSW 20:46:00 10° SSE visible
26 Jan - 11:15:12 10° S 11:20:13 40° ESE 11:24:50 10° NE daylight
26 Jan - 12:57:49 10° WSW 13:02:48 40° NW 13:07:23 10° NNE daylight
26 Jan - 14:44:13 10° NW 14:46:36 13° NNW 14:48:56 10° N daylight
26 Jan - 18:12:49 10° NNW 18:15:55 18° NNE 18:18:55 10° ENE visible
26 Jan - 19:54:46 10° NW 19:59:13 80° NE 20:03:31 10° SE visible
26 Jan - 21:38:55 10° WNW 21:41:04 14° WSW 21:43:12 10° SW visible
27 Jan - 10:33:28 10° SSE 10:37:47 25° ESE 10:41:49 10° ENE daylight
27 Jan - 12:14:48 10° SW 12:20:04 61° NW 12:24:54 10° NNE daylight
27 Jan - 14:00:14 10° WNW 14:03:31 17° NNW 14:06:40 10° NNE daylight
27 Jan - 17:30:33 10° N 17:32:52 14° NNE 17:35:07 10° NE visible
27 Jan - 19:12:13 10° NNW 19:16:34 48° NE 19:20:43 10° ESE visible
27 Jan - 20:55:17 10° WNW 20:58:47 24° WSW 21:02:13 10° SSW visible
28 Jan - 09:52:30 10° SE 09:55:27 15° ESE 09:58:17 10° ENE daylight
28 Jan - 11:32:03 10° SSW 11:37:26 86° SE 11:42:20 10° NE daylight
28 Jan - 13:16:31 10° W 13:20:33 23° NW 13:24:20 10° NNE daylight
28 Jan - 16:48:28 10° N 16:49:43 11° NNE 16:50:57 10° NNE daylight
28 Jan - 18:29:46 10° NNW 18:33:46 31° NE 18:37:38 10° ESE visible
28 Jan - 20:12:16 10° NW 20:16:24 41° WSW 20:20:26 10° S visible
